Dewpoint
36 36 36 36 35 35 31 30 31 33 29 25 24 23 22 23 23 23 29 29 30 31 30 27 28 28 27 28 28 27 26 24 25 22 22 22 24 28 22 26 25 26 26
36 36 36 36 35 33 31 30 30 31 29 24 23 24 24 22 22 22 26 28 30 31 29 30 28 28 26 28 28 28 25 24 25 24 22 17 20 20 23 22 24 28 26
36 36 36 36 35 33 30 29 30 31 30 28 23 22 22 20 19 20 22 25 29 30 31 31 29 28 27 26 27 27 27 26 24 27 25 22 18 21 22 24 23 27 26
36 36 35 35 34 32 31 30 31 30 26 28 24 26 19 18 21 21 24 25 29 29 30 31 30 29 27 27 27 26 26 27 25 25 24 26 26 24 21 22 22 24 25
36 35 35 34 32 32 31 32 31 28 27 27 27 23 23 21 21 23 26 27 27 29 29 30 30 28 26 28 28 27 26 26 26 26 27 24 24 23 25 22 19 21 24
36 35 35 34 31 30 31 31 29 26 27 27 27 26 26 24 23 24 23 24 24 26 29 29 29 27 26 27 26 27 26 26 27 26 26 27 26 24 24 23 21 20 22
37 35 34 32 32 31 31 29 26 26 26 26 25 25 24 25 24 24 22 24 24 25 28 29 28 25 26 27 26 27 27 27 28 28 28 26 25 27 26 25 22 21 21
37 35 34 33 32 31 31 29 24 23 24 24 25 24 24 21 21 23 24 23 24 26 29 29 28 25 26 27 27 27 27 27 28 28 29 27 26 27 28 27 25 21 20
36 35 34 34 33 31 31 28 23 22 23 24 24 23 23 24 23 25 25 23 26 25 28 28 26 24 27 26 27 29 29 28 28 29 31 28 27 28 28 29 28 27 22
35 35 34 34 32 31 29 27 24 22 22 24 23 20 22 23 23 23 23 24 26 27 26 24 24 25 26 26 27 27 29 29 29 29 29 28 28 28 29 30 29 30 29
35 35 33 32 32 30 26 25 25 22 24 25 23 23 22 21 20 19 21 23 24 24 22 23 25 26 26 26 26 28 27 25 28 29 28 28 28 29 30 32 30 29 31
35 34 32 31 31 28 24 24 26 25 26 23 22 21 21 17 15 17 19 21 20 22 22 24 24 24 25 25 26 28 24 24 25 26 28 28 27 30 32 31 31 31 31
34 33 32 30 30 26 24 23 24 25 25 19 18 19 18 14 14 15 17 18 19 20 21 22 24 24 24 24 28 25 23 22 23 25 26 26 27 28 30 31 30 31 31
33 32 31 30 27 25 24 23 24 26 22 17 16 18 17 14 13 15 16 18 19 18 20 22 24 24 23 24 27 23 22 21 22 23 23 23 27 28 27 29 31 32 31
32 32 31 30 26 26 24 23 24 24 19 15 15 18 17 15 15 15 15 16 18 18 21 22 23 24 22 24 29 24 22 20 21 21 20 22 26 28 27 29 28 29 29
31 31 30 28 25 24 24 23 23 21 16 16 16 17 16 13 15 15 15 15 16 18 21 24 23 24 21 25 27 24 20 19 20 19 19 22 25 26 28 28 27 29 28
31 30 29 26 25 24 24 23 22 16 16 16 15 15 15 15 17 15 14 13 16 18 20 22 22 23 23 25 26 24 19 18 21 19 19 22 24 26 26 26 28 29 28
31 30 28 26 26 25 24 23 16 14 15 16 14 15 15 14 15 15 15 14 15 17 18 20 22 21 19 24 26 25 20 19 20 20 19 24 25 25 27 26 26 28 27
32 30 28 27 25 24 24 19 13 14 15 16 15 15 16 15 15 15 15 13 14 15 16 18 20 19 19 24 25 23 19 17 18 18 20 25 24 26 27 26 25 26 26
30 27 26 25 25 24 21 14 13 14 14 16 16 15 15 15 16 17 15 13 14 13 15 17 20 20 19 23 25 24 19 17 17 18 18 24 25 26 27 24 24 22 25
27 26 26 24 24 22 17 15 15 16 17 17 16 15 15 13 15 15 12 13 14 15 18 18 19 19 20 21 24 24 20 19 18 18 19 22 25 25 26 26 25 25 27
26 26 24 23 22 18 14 14 17 17 16 16 16 16 16 11 10 13 12 14 17 17 18 18 18 19 19 22 23 23 23 22 19 21 21 23 26 26 26 25 25 26 26
26 24 23 23 20 13 13 17 17 16 16 17 22 18 13 11 11 11 13 16 18 18 17 17 17 18 18 20 22 22 23 23 22 22 23 23 26 26 25 26 26 26 26
25 23 23 19 15 15 17 22 27 26 25 24 17 11 10 9 8 13 15 18 19 18 17 17 19 19 19 20 21 21 22 22 23 25 27 26 26 26 26 26 26 26 27
24 23 20 19 21 21 25 23 23 17 13 10 8 9 10 8 8 13 19 19 20 19 18 19 19 21 21 22 21 21 22 22 23 26 25 25 24 24 23 24 25 24 24
23 21 22 25 25 25 25 24 17 10 9 8 8 10 8 9 7 11 18 19 18 17 17 16 18 21 16 17 19 20 20 20 21 22 22 22 22 22 22 22 23 23 24
Lifted_Index
11 12 13 13 14 14 15 16 18 19 19 20 21 21 21 21 22 22 22 22 21 20 19 17 16 15 15 15 15 15 15 15 14 14 13 12 12 13 14 14 14 15 15
10 11 12 13 13 14 15 16 18 19 20 21 21 21 21 21 22 22 22 21 21 19 18 16 15 15 15 15 15 15 15 15 14 14 13 12 12 13 14 14 15 15 15
10 10 11 12 13 14 15 16 18 19 20 21 21 21 21 21 21 21 21 20 19 18 17 16 15 15 15 15 14 14 14 14 14 14 14 13 12 13 13 14 15 15 15
10 10 11 12 13 14 15 17 18 19 20 21 21 21 21 21 21 21 20 19 18 17 16 15 15 15 15 14 14 14 14 14 14 14 14 14 14 13 13 13 15 15 15
10 11 11 12 13 14 15 17 18 19 21 21 21 21 22 22 21 20 19 18 17 16 15 15 15 15 14 14 14 14 14 14 14 14 15 15 14 14 13 13 14 15 16
10 11 11 12 12 13 15 16 17 19 20 21 22 22 22 22 21 20 19 18 16 15 15 14 14 14 14 14 14 14 14 14 14 14 14 14 14 14 14 14 14 15 15
10 10 11 11 12 13 15 16 17 19 20 21 22 22 22 21 20 19 18 17 16 15 14 14 14 14 14 14 14 14 13 13 12 12 13 13 14 14 15 15 14 14 15
9 10 11 11 12 13 14 16 17 18 20 21 21 22 22 21 20 19 18 16 15 15 14 14 14 14 14 14 13 13 12 12 12 11 11 12 12 13 14 15 15 14 14
9 10 11 12 12 13 14 16 17 18 19 20 21 22 21 21 20 18 17 16 16 15 14 14 14 14 13 13 12 12 11 11 11 11 11 11 11 11 12 14 15 15 14
9 10 11 12 12 13 14 16 17 18 19 20 21 22 21 20 19 18 17 17 16 15 15 15 14 14 13 12 12 11 11 11 11 11 11 10 10 10 10 12 13 15 15
9 10 11 12 12 13 14 16 17 18 19 20 21 21 21 20 19 18 17 17 16 16 16 15 14 14 13 12 11 11 11 11 11 11 10 10 10 10 10 10 12 13 15
9 10 11 11 12 13 14 16 17 18 19 21 21 21 21 20 19 18 18 17 17 16 16 15 14 14 13 12 11 11 11 11 11 11 11 10 10 10 10 10 11 12 13
9 10 11 11 11 12 14 16 17 18 20 21 21 21 20 19 19 19 18 18 17 16 16 15 14 14 13 12 12 11 11 11 11 11 11 11 11 11 11 11 11 12 13
8 9 10 10 11 12 14 16 17 18 20 21 21 20 19 19 19 19 18 18 17 16 15 15 14 14 13 12 12 11 11 11 11 11 11 11 11 11 12 12 12 12 13
8 9 10 10 11 12 14 16 17 19 21 21 21 20 19 19 19 18 18 17 16 16 15 15 14 13 13 13 12 12 11 11 11 11 12 12 12 12 13 13 13 13 14
8 9 10 10 11 13 14 16 17 20 21 21 20 19 19 19 18 18 17 17 16 15 15 14 14 13 13 13 13 12 11 11 11 12 12 12 13 13 14 14 14 14 14
8 9 9 10 11 13 15 16 18 20 21 21 20 19 19 19 18 18 17 16 16 15 14 14 13 13 13 13 13 12 12 11 11 12 13 13 13 14 14 14 15 15 15
8 9 10 11 12 14 16 17 19 21 21 20 19 19 18 18 18 17 16 16 15 15 14 14 13 13 14 13 13 12 12 12 12 12 13 13 13 14 14 15 15 15 15
9 9 10 12 13 15 16 18 20 21 20 20 19 18 18 17 17 16 16 16 15 15 14 14 13 13 14 13 12 12 12 12 12 13 13 13 14 14 14 14 14 14 14
9 10 11 12 14 16 17 19 20 20 20 19 18 18 17 16 16 16 16 15 15 14 14 13 13 13 14 13 12 12 11 11 12 12 13 13 13 14 14 14 14 14 14
9 10 12 13 15 16 18 19 20 20 19 19 18 18 17 16 16 16 16 15 15 14 14 13 13 13 13 13 12 11 11 11 11 11 12 12 13 13 14 14 14 13 13
10 11 12 14 15 17 19 20 20 20 20 19 18 17 16 16 16 15 15 15 14 14 13 12 12 13 13 13 12 11 11 11 11 11 11 12 12 13 13 14 13 13 13
11 11 13 14 15 17 19 20 20 20 19 18 17 16 15 16 16 15 15 14 14 13 13 12 12 12 12 12 11 11 11 11 11 11 11 12 12 12 13 13 13 13 13
11 12 13 14 15 18 20 20 20 20 19 17 16 15 15 15 15 15 15 14 14 13 13 13 12 12 12 12 12 11 11 10 10 11 11 11 11 12 12 13 13 14 14
12 12 13 14 16 18 20 20 20 19 18 17 16 15 15 15 15 15 15 15 15 15 14 14 14 13 13 13 12 12 11 10 10 10 10 10 10 10 11 12 12 13 14
12 13 14 15 16 18 20 20 20 19 18 16 15 15 15 15 15 15 15 15 16 16 16 15 15 15 14 14 13 12 11 11 10 10 9 9 9 10 10 11 12 13 13